GFSSW_sfc_thetae_144.txt.gz
Theta_e
317 317 315 314 313 313 312 312 312 312 312 312 313 315 316 316 315 314 307 308 311 321 317 311 309 311 311 309 312 311 301 299 302 303 305 308 305 307 308 304 306 309 309 308 310
318 318 317 315 314 313 313 312 312 311 312 312 313 315 316 315 312 309 313 320 319 322 310 308 306 307 305 307 308 304 300 301 305 305 302 302 302 302 301 301 303 305 308 308 308
319 319 318 316 314 313 313 313 311 311 311 313 313 315 315 314 308 308 321 319 322 317 311 310 308 305 301 304 305 304 298 304 304 302 302 300 300 302 299 298 302 301 304 306 307
320 320 318 317 315 314 314 313 311 311 311 312 312 314 315 312 298 308 322 319 321 310 308 306 306 302 301 299 305 299 303 303 304 302 299 297 300 299 300 301 304 305 305 305 305
319 319 318 317 315 315 314 313 311 310 310 310 312 314 312 306 305 309 319 315 308 308 305 304 302 302 299 301 302 300 301 302 302 300 299 300 298 298 299 303 304 304 304 304 305
318 318 317 317 316 315 314 313 312 311 309 309 311 313 310 300 310 311 309 308 307 306 305 304 302 304 300 300 299 301 300 300 301 300 300 298 298 299 301 304 303 303 303 304 305
318 317 317 317 315 315 314 313 311 310 309 309 311 310 304 303 310 311 309 307 308 307 303 306 305 301 302 298 302 299 295 298 299 300 298 299 295 297 302 303 301 302 303 304 305
319 317 316 316 315 314 313 312 310 310 309 310 312 308 300 314 314 309 309 308 308 308 305 307 306 303 301 303 300 295 296 291 299 299 298 297 291 299 302 301 300 301 302 304 305
319 317 316 314 313 313 311 310 310 310 310 312 308 306 303 313 306 309 309 305 306 306 306 306 304 300 301 295 292 294 289 292 295 299 297 295 292 298 302 300 299 300 302 304 306
316 317 316 314 313 311 309 308 309 307 306 308 306 300 307 305 308 307 308 306 303 303 301 300 299 296 296 293 287 291 291 294 293 296 296 294 293 298 300 300 299 301 303 305 305
314 317 316 315 313 310 307 303 299 300 303 304 306 304 304 311 308 304 306 303 302 300 295 298 293 290 294 297 296 294 292 291 294 297 293 293 293 295 299 299 299 302 302 302 305
314 314 316 315 312 308 304 299 298 301 296 305 306 308 312 309 300 302 306 298 297 293 297 295 291 297 298 296 294 293 290 290 294 296 293 292 292 296 298 298 300 301 301 303 303
313 313 314 313 308 303 300 299 304 305 293 298 305 306 308 310 301 302 303 300 297 294 295 293 296 298 295 293 291 291 290 291 290 292 293 292 291 294 297 299 301 301 302 301 300
313 312 312 307 304 303 299 303 304 308 291 296 303 308 310 308 300 308 305 300 297 294 296 295 298 295 293 291 293 288 294 291 289 288 285 294 283 292 295 296 298 299 299 299 300
312 311 308 310 303 301 306 306 307 305 281 301 304 314 312 303 302 302 309 301 295 295 295 293 294 292 291 292 294 290 293 291 290 288 288 289 286 290 296 294 295 297 298 298 299
312 311 308 304 304 304 305 306 305 287 280 297 299 298 298 302 300 301 302 302 301 296 296 295 299 296 294 295 293 293 290 290 290 289 283 289 288 289 291 293 294 296 297 297 298
310 310 308 305 300 305 305 301 286 282 296 295 294 295 296 298 297 295 295 293 290 287 288 292 293 295 295 291 292 290 287 282 282 283 282 291 288 290 294 295 295 295 295 297 297
309 309 308 308 305 303 301 290 281 290 292 300 298 294 291 296 294 293 292 290 293 293 290 286 284 292 294 291 289 289 288 285 278 281 285 290 284 289 296 298 298 297 297 296 296
308 307 306 307 305 303 294 283 285 290 296 296 295 291 290 293 293 293 291 291 293 295 289 288 287 295 294 294 292 289 285 292 286 286 281 285 289 294 296 296 296 295 295 294 295
304 303 303 305 304 298 289 285 290 296 296 298 290 291 288 290 290 291 290 294 293 296 298 293 287 291 291 292 292 290 294 284 285 277 277 283 286 287 291 292 293 293 293 294 295
303 292 304 305 301 291 283 286 292 297 298 295 293 291 291 291 292 290 290 293 296 296 297 294 292 288 290 286 286 286 287 288 289 288 280 279 283 293 292 292 291 292 293 293 295
299 286 303 302 286 286 286 291 295 295 298 297 297 295 293 293 292 290 290 293 297 297 291 294 291 286 285 291 292 291 288 288 284 281 284 283 283 295 294 293 293 292 293 294 295
291 291 301 300 282 285 290 291 293 293 294 295 293 295 297 292 289 291 293 297 295 294 292 293 287 280 283 287 289 286 290 290 289 288 283 282 283 295 294 293 293 291 292 293 293
291 283 288 292 293 289 287 288 288 295 294 296 296 296 294 292 293 289 290 294 296 295 295 296 288 285 282 284 287 283 286 289 288 283 283 283 285 291 291 290 291 291 292 293 292
292 286 291 282 285 290 291 289 287 287 294 296 294 293 292 289 290 290 291 292 293 294 292 291 284 286 287 288 288 286 285 286 285 286 283 285 285 289 291 290 291 291 291 291 291
287 288 293 290 291 288 290 289 287 289 292 291 292 294 295 291 291 288 291 290 288 290 290 291 284 286 283 286 285 283 287 287 287 287 286 286 284 292 292 292 291 290 290 289 290
295 296 295 291 291 286 287 289 289 292 294 295 295 293 292 295 297 297 296 295 292 288 287 287 285 282 278 284 283 280 284 285 286 287 286 282 289 292 289 289 289 289 289 289 289

GFSSW_sfc_thetae_150.txt.gz
Theta_e
320 319 319 318 317 316 315 315 315 313 313 313 313 313 315 316 314 307 300 306 306 320 320 305 305 302 299 297 297 297 290 287 289 292 293 296 294 298 297 297 298 299 300 300 301
321 320 319 319 318 316 316 315 314 314 314 313 313 314 314 315 309 303 310 317 319 319 302 302 300 300 294 292 294 294 288 290 295 294 292 293 292 294 294 292 296 298 302 300 300
322 321 321 320 318 317 316 315 314 314 314 313 313 313 314 313 302 303 317 318 320 314 302 301 301 298 293 293 291 290 291 294 294 294 292 292 290 293 290 290 296 295 296 298 300
321 321 320 320 319 318 316 314 314 314 313 313 313 313 314 309 291 300 321 321 318 304 302 300 297 294 291 290 292 289 295 296 295 295 292 291 292 292 290 293 299 299 298 298 303
320 320 320 320 319 318 316 315 314 314 313 312 313 313 308 300 301 306 322 318 305 302 300 298 294 293 290 291 292 291 292 294 294 294 293 295 292 292 290 295 298 299 298 303 303
319 319 319 319 319 318 317 315 314 313 313 312 312 314 303 293 308 305 307 303 302 299 298 297 295 296 293 292 289 293 292 292 292 292 293 294 292 291 293 296 297 298 302 302 302
319 319 318 319 318 318 317 315 314 313 313 313 311 309 301 294 303 301 304 301 300 300 298 299 298 295 294 292 297 294 289 290 291 291 290 293 289 288 295 297 296 299 302 301 301
315 316 317 317 317 317 316 314 313 313 313 313 311 305 293 307 304 305 305 301 302 301 301 300 300 297 294 295 294 291 288 284 289 291 292 292 285 292 296 295 293 300 300 299 299
313 314 314 316 316 316 315 314 313 313 313 313 302 299 295 310 305 306 305 301 302 301 300 303 297 293 293 288 285 286 282 283 287 291 291 289 285 291 293 294 295 298 298 298 297
312 313 314 314 315 315 314 313 313 311 309 305 301 295 301 302 305 305 303 303 299 298 297 295 290 287 286 285 280 283 283 285 285 288 289 287 287 289 290 292 295 296 296 296 296
312 313 313 313 315 314 310 308 303 301 296 300 298 300 304 306 309 301 303 300 297 294 288 291 285 282 285 287 289 288 286 284 285 289 286 287 285 289 290 294 294 293 293 294 295
311 311 312 312 314 312 306 304 299 301 298 303 301 300 304 306 301 304 300 294 292 287 290 287 284 289 290 290 289 288 286 284 286 289 287 284 284 288 288 293 294 292 292 293 294
311 311 312 312 311 308 304 303 303 305 295 299 302 305 304 306 302 302 298 294 290 288 288 285 289 293 291 290 289 287 285 284 284 285 286 283 281 286 292 294 295 294 294 294 293
310 311 311 309 306 302 301 302 305 308 291 294 297 301 305 305 300 309 305 295 291 288 288 287 292 291 290 289 289 284 289 288 285 282 278 283 275 282 290 291 292 291 290 291 292
310 310 309 309 302 301 304 302 307 304 275 293 299 308 305 301 301 301 308 295 290 290 289 287 288 288 288 289 290 286 290 287 285 281 278 280 276 279 290 287 288 289 291 290 291
309 310 309 305 304 304 301 304 304 284 275 290 300 299 298 300 300 298 302 297 296 290 290 289 294 291 290 291 291 290 286 285 282 280 274 280 279 278 281 288 289 290 291 291 291
309 309 308 304 296 304 304 300 286 278 290 286 294 294 296 296 297 297 295 292 288 283 284 289 289 292 293 286 288 286 282 275 274 274 274 283 280 281 288 290 290 290 289 290 290
308 307 306 303 302 302 301 290 278 284 286 293 294 293 291 294 296 297 293 289 294 288 284 283 280 289 291 288 285 284 283 276 273 273 277 285 278 282 290 292 292 292 290 291 290
307 298 297 300 302 301 293 280 279 285 291 290 290 287 289 292 293 296 294 293 292 291 283 282 284 291 291 291 290 284 280 286 280 281 276 279 283 288 289 289 290 289 290 288 289
295 293 292 301 301 298 287 282 284 291 292 292 286 289 285 290 289 289 291 295 292 295 293 288 282 289 289 290 289 287 289 281 280 275 273 277 281 280 285 286 288 287 287 288 289
293 290 293 303 301 291 280 282 286 291 293 290 288 287 289 288 290 288 290 293 294 293 293 290 286 284 287 283 283 283 283 285 284 280 275 276 279 287 287 288 287 287 288 288 288
290 284 297 302 286 286 283 285 290 289 291 289 291 290 289 290 288 288 287 290 294 292 288 290 286 281 282 288 289 286 285 286 278 279 282 280 278 289 288 288 288 288 290 289 289
286 286 299 299 280 282 286 286 287 287 287 287 287 290 292 289 285 290 290 295 293 291 289 290 284 278 281 285 286 283 285 287 287 285 280 278 279 290 290 289 289 288 288 289 288
287 279 282 292 289 284 283 283 283 289 288 289 289 290 289 288 290 287 290 294 294 293 298 294 285 282 279 282 285 281 284 286 285 280 280 281 283 286 287 287 288 287 288 287 287
286 281 283 279 284 286 285 285 283 283 288 289 287 287 286 284 286 287 288 290 293 294 291 288 283 284 286 287 287 286 285 285 283 284 281 283 285 286 287 287 287 288 289 288 287
281 283 284 283 286 285 285 282 283 284 286 285 285 287 288 286 287 284 288 288 287 289 288 290 283 284 283 287 287 284 286 286 285 285 286 287 285 290 289 289 287 287 287 287 286
290 288 286 282 281 282 283 283 284 286 287 288 288 287 285 288 291 293 293 292 293 288 284 284 284 283 280 286 284 279 283 284 285 287 286 282 286 288 287 287 286 286 286 286 285

GFSSW_sfc_thetae_153.txt.gz
Theta_e
321 320 319 319 318 317 316 316 315 315 314 313 313 315 315 315 314 305 294 304 305 318 318 301 301 300 297 295 296 295 289 286 288 290 291 294 292 296 294 295 296 297 298 298 300
322 321 321 320 318 317 316 316 315 315 315 314 314 314 314 315 308 304 311 319 318 319 300 299 298 298 293 292 293 291 287 290 294 293 290 292 289 292 291 292 294 296 298 301 306
322 322 322 321 319 318 317 315 315 316 315 315 314 314 314 313 299 301 319 320 317 311 299 299 299 296 291 291 290 290 289 293 293 293 293 292 289 291 291 288 295 294 295 303 304
322 321 321 321 320 319 317 315 315 315 315 315 315 314 315 308 294 300 321 321 318 303 300 297 295 292 290 288 291 287 292 294 294 294 291 290 291 291 290 292 297 296 303 303 302
320 320 320 321 320 319 317 316 316 315 314 314 315 314 308 296 298 307 324 318 304 300 298 296 293 291 288 289 290 289 290 292 293 292 290 293 290 291 289 293 301 304 303 300 301
320 319 319 319 319 319 318 316 315 314 314 314 314 314 300 295 306 304 305 302 300 298 296 295 294 294 291 290 288 291 290 290 290 291 291 291 291 291 292 295 302 301 299 299 300
315 317 318 319 319 318 318 317 315 314 314 315 313 307 299 300 303 300 303 300 298 298 296 297 297 293 292 290 293 293 288 290 290 291 290 291 287 288 292 299 300 299 299 298 299
314 314 314 317 317 317 317 316 315 314 314 314 314 304 294 305 303 303 303 302 304 300 299 299 298 295 292 293 292 289 287 283 288 290 291 291 284 290 293 298 296 298 297 296 297
312 312 313 313 314 316 316 315 314 314 314 314 301 299 297 310 304 306 304 302 301 300 299 302 296 291 291 286 284 284 281 282 286 289 288 288 284 290 292 298 297 296 295 295 295
312 312 313 312 313 314 314 314 314 311 309 306 300 298 302 305 305 304 302 304 298 297 295 293 289 285 285 284 279 282 281 284 283 286 286 284 286 286 289 296 295 294 294 293 293
311 312 313 312 312 314 312 310 303 300 297 302 299 302 305 305 308 302 302 299 296 294 287 290 285 282 284 286 287 286 284 282 284 288 285 285 284 285 290 294 292 292 292 292 293
310 311 311 312 313 313 309 305 302 298 297 304 302 299 304 304 299 305 299 293 292 287 289 286 283 289 288 288 287 286 284 283 285 287 286 282 285 285 289 292 292 291 291 291 291
310 310 311 311 311 309 305 305 303 303 298 300 303 304 304 305 301 303 300 293 290 287 286 284 288 291 289 287 286 285 283 283 283 283 283 281 281 284 290 292 293 292 292 292 291
310 309 310 310 306 304 301 304 304 305 287 290 297 300 305 305 299 309 307 297 290 287 287 286 290 289 288 287 287 283 288 287 284 281 278 282 275 281 288 288 290 290 289 290 290
309 309 309 309 300 301 302 301 304 300 271 290 297 306 304 301 299 301 309 295 293 288 288 285 287 286 285 287 289 286 289 286 284 279 277 278 276 278 288 285 287 288 289 289 289
309 309 309 304 302 301 301 304 302 283 270 287 299 298 297 299 299 299 301 297 297 289 289 289 291 290 289 289 290 289 285 284 281 279 275 279 280 277 283 286 288 289 289 290 289
309 309 307 303 296 302 303 302 286 275 288 285 290 295 296 294 295 296 294 291 287 283 284 287 288 290 291 285 287 285 283 277 275 274 275 281 279 284 286 289 290 289 288 288 289
308 307 305 303 301 302 301 290 275 282 284 291 290 289 289 294 294 295 291 288 292 287 284 283 281 288 291 289 284 283 283 278 274 274 276 282 276 280 288 290 291 291 289 289 288
307 297 296 300 302 300 293 282 279 283 289 288 289 284 284 291 291 293 292 289 292 291 284 282 283 291 291 290 290 283 280 286 280 280 276 278 282 286 288 288 289 288 288 287 287
295 293 293 300 300 298 287 281 282 288 289 291 284 287 282 284 289 288 290 295 294 295 292 288 281 288 289 290 289 286 288 279 280 275 273 276 278 279 284 285 287 286 287 288 288
292 289 292 301 299 291 280 280 285 289 290 288 286 286 287 286 288 288 288 292 293 294 295 292 287 284 286 283 282 283 282 284 284 281 276 273 276 287 286 288 286 286 287 287 286
288 283 295 300 285 286 282 284 289 287 290 288 288 288 286 287 287 287 286 290 293 295 288 291 287 282 282 288 289 286 285 285 277 278 281 280 279 288 289 288 287 288 289 288 288
287 282 296 298 280 281 284 285 287 285 285 286 285 288 290 287 282 288 289 294 292 290 288 291 285 280 281 285 286 283 284 286 287 284 280 278 279 289 289 288 289 287 288 288 288
286 279 282 291 289 283 282 283 282 288 287 288 287 288 285 284 288 285 287 294 296 293 297 292 284 282 279 281 283 281 284 286 284 279 279 281 283 284 287 287 288 287 287 287 286
286 282 281 278 281 284 283 283 282 282 287 288 285 285 284 280 281 281 287 290 291 296 293 289 282 282 284 287 287 285 285 285 282 284 280 283 283 286 287 288 288 288 288 287 286
283 281 282 281 284 282 283 282 281 283 284 283 283 285 285 283 285 283 286 286 286 289 288 291 282 285 283 286 287 285 286 286 286 286 285 285 284 289 291 290 287 288 288 286 285
290 286 285 281 280 277 280 284 283 285 286 287 286 284 283 286 289 290 291 290 290 287 286 286 284 283 280 285 284 280 283 285 286 288 286 281 285 289 287 288 287 287 286 285 285

GFSSW_sfc_thetae_156.txt.gz
Theta_e
321 321 320 320 319 318 318 317 316 316 316 317 316 316 316 316 315 304 292 300 306 321 318 300 299 298 296 294 294 294 288 286 288 288 290 291 291 294 293 294 295 295 295 296 302
322 322 321 321 319 319 318 317 316 317 317 317 316 316 315 316 306 301 312 319 317 320 299 298 297 297 292 290 291 290 287 289 293 292 290 291 288 292 291 291 292 296 304 305 304
323 322 322 321 320 319 318 317 316 317 317 317 317 316 314 313 298 299 319 319 316 309 297 298 297 294 290 289 288 288 287 291 293 293 290 290 288 290 291 287 293 293 300 301 301
322 322 322 321 321 320 318 317 317 317 317 317 317 315 314 306 297 298 321 320 318 302 299 296 294 291 288 287 289 286 290 291 292 291 290 289 291 289 288 288 295 300 302 300 299
321 321 321 321 321 320 318 317 317 317 316 316 317 314 307 299 303 304 322 316 300 299 297 294 292 290 287 288 289 287 289 291 292 291 288 291 288 289 288 298 302 302 300 298 298
319 319 320 320 320 319 318 318 317 316 316 316 317 314 297 297 307 304 304 300 299 297 295 294 292 293 290 288 287 289 290 290 289 289 289 290 289 287 291 299 300 299 296 296 297
314 314 316 319 319 319 319 317 316 315 316 316 316 306 297 304 302 302 302 300 298 298 295 296 296 292 291 289 292 290 287 289 289 288 288 289 285 288 294 300 297 297 296 296 296
313 312 313 313 315 317 317 316 316 315 316 315 315 302 296 309 302 304 302 303 303 302 298 298 297 293 291 292 290 286 285 282 287 287 289 290 284 288 298 297 294 295 295 294 295
312 312 311 312 312 313 315 315 315 315 315 315 301 297 298 313 306 307 304 303 303 299 298 300 295 290 290 286 283 283 280 281 285 288 286 286 283 286 296 296 294 293 292 293 293
311 312 312 312 311 312 314 315 315 311 309 310 300 297 304 307 305 305 302 304 300 297 294 292 289 286 285 283 279 281 281 283 282 284 285 283 284 285 292 295 293 292 291 291 292
310 311 311 312 312 313 310 306 301 298 297 300 298 302 305 304 308 303 301 298 295 293 288 289 285 282 284 286 286 285 283 282 283 287 283 283 283 284 290 291 291 290 290 290 291
309 310 310 311 312 312 311 300 300 298 294 302 302 300 303 303 299 306 301 294 292 288 288 285 283 287 287 286 285 284 282 282 286 287 285 282 283 283 290 290 292 291 289 290 291
309 309 310 310 311 309 306 302 301 301 294 298 303 302 304 304 301 302 302 293 290 286 286 283 287 290 288 286 285 283 282 282 283 284 282 281 280 284 289 290 291 291 290 290 290
309 309 310 310 303 304 300 303 304 307 284 288 295 299 303 303 298 307 307 299 290 287 287 285 289 288 286 286 286 281 287 287 283 280 277 280 275 280 286 287 290 289 288 289 289
309 308 309 308 299 299 302 302 305 298 268 288 295 304 302 299 297 300 307 298 297 287 289 287 286 285 284 286 287 284 289 286 283 279 276 277 276 277 286 285 287 287 288 288 288
309 309 309 304 300 302 301 304 302 283 268 284 297 296 296 298 299 298 301 300 298 293 288 290 290 288 288 288 289 288 284 283 281 279 274 279 278 279 282 284 287 288 288 288 287
309 308 307 303 295 301 302 302 285 274 285 283 287 294 294 293 295 296 293 292 289 284 286 288 287 289 290 285 286 285 282 276 275 274 275 280 278 282 284 287 289 289 287 287 287
308 307 304 303 301 301 301 290 277 282 283 289 288 288 286 292 293 294 291 288 293 287 285 284 282 287 290 289 285 284 283 277 274 273 275 280 275 278 287 288 291 290 288 287 287
306 299 297 300 301 300 294 281 278 282 288 287 286 283 283 287 289 290 290 288 291 290 284 282 283 289 290 291 290 283 280 286 280 280 276 278 280 284 287 286 288 287 287 286 286
295 294 296 300 302 298 288 282 283 287 288 289 282 285 280 281 284 287 287 292 292 294 293 289 283 288 288 289 288 286 287 279 280 276 274 276 277 279 283 284 286 286 285 286 287
292 288 291 300 298 290 280 281 284 289 288 285 284 284 285 285 286 285 286 291 292 294 294 290 285 285 286 283 282 283 282 284 284 281 277 275 277 284 285 287 286 287 288 287 286
289 283 291 299 285 285 282 282 289 285 288 287 286 286 285 286 285 285 285 288 292 291 289 291 287 280 285 288 288 286 284 285 280 279 280 279 280 286 287 289 288 288 289 287 287
286 283 295 293 279 281 283 284 285 284 284 284 284 286 288 285 282 286 288 293 292 290 286 287 285 281 283 286 289 283 285 286 286 284 280 277 279 287 288 288 289 288 288 287 286
286 280 282 290 286 282 281 281 281 287 286 286 285 286 284 282 286 283 285 291 293 291 296 292 284 280 278 280 284 284 286 286 285 280 281 280 280 284 286 287 288 288 288 287 286
286 280 282 278 281 283 282 282 280 280 286 287 283 284 282 280 281 281 283 285 288 293 291 288 282 284 285 285 285 284 284 286 283 283 279 282 283 286 288 288 289 289 287 286 286
282 283 282 281 282 280 283 281 280 282 283 282 282 284 284 281 282 281 284 284 283 287 285 287 278 283 281 287 287 285 285 285 285 285 286 285 285 291 292 291 289 287 287 286 285
288 286 286 282 279 277 279 280 282 284 284 286 285 283 282 284 286 287 288 288 289 286 284 286 284 280 279 285 284 279 283 284 282 287 286 282 287 289 288 289 288 287 287 285 284

GFSSW_sfc_thetae_159.txt.gz
Theta_e
321 321 321 320 319 319 319 318 317 317 318 318 319 319 318 316 315 308 298 305 310 322 318 303 304 302 302 300 302 301 298 296 297 296 297 297 297 299 300 300 299 302 299 307 309
322 323 322 321 320 319 319 318 317 318 318 318 318 319 317 315 309 304 314 319 319 318 302 301 300 301 299 298 298 299 298 297 300 300 296 296 297 298 298 297 297 301 306 309 308
324 323 322 322 321 320 319 318 317 318 318 318 318 319 315 314 305 303 319 319 319 311 303 302 300 300 298 298 296 295 296 297 299 300 298 296 296 297 298 296 298 300 304 306 305
323 323 322 322 322 321 319 318 318 319 318 318 319 318 314 307 302 304 320 321 318 306 303 300 299 296 295 294 295 294 296 297 298 298 296 296 297 295 296 297 300 305 306 305 304
321 321 321 322 321 320 319 318 318 318 317 317 318 317 308 306 310 307 321 314 304 303 300 298 297 295 293 293 294 293 295 296 297 296 295 296 295 295 295 301 305 305 304 302 302
316 317 319 320 320 320 319 318 317 317 317 317 318 315 303 304 313 305 304 304 303 302 300 299 298 298 295 294 293 294 295 295 295 296 295 295 294 296 297 303 303 302 301 301 301
313 313 314 315 318 319 319 318 317 316 317 317 317 307 299 308 307 307 305 303 302 301 299 300 300 298 297 294 296 295 292 294 295 296 295 296 293 293 300 302 300 300 300 300 299
312 312 312 312 313 313 315 316 316 317 317 316 316 304 302 314 306 307 306 306 305 305 303 302 301 298 296 297 294 292 291 289 294 293 294 295 291 294 301 300 299 299 299 298 298
311 312 311 312 312 312 313 314 315 316 316 315 305 301 302 316 310 311 308 306 306 303 302 301 300 294 295 291 289 289 287 286 290 293 292 292 291 292 300 300 298 298 298 297 297
311 311 311 312 311 311 312 313 315 312 310 310 301 301 305 306 306 308 305 305 302 299 298 297 293 291 290 289 287 286 286 287 288 291 291 290 291 292 298 298 298 298 297 297 297
309 310 311 311 311 312 310 309 302 300 302 301 299 302 306 306 309 305 303 300 299 297 292 293 289 286 290 290 289 289 287 286 288 291 290 291 290 291 297 297 296 296 296 296 296
309 309 310 311 310 311 311 304 304 303 297 303 303 301 304 306 302 306 305 297 295 291 291 290 287 292 291 289 288 288 286 286 289 290 289 290 289 289 295 297 297 297 296 296 295
309 309 309 310 310 310 307 305 303 304 296 298 303 302 303 306 301 302 304 297 293 290 289 289 291 291 290 287 286 287 286 286 287 288 288 287 287 288 293 296 296 297 297 296 296
309 309 309 309 304 303 302 304 304 307 287 287 295 300 304 305 298 308 308 301 292 290 290 290 293 290 289 288 289 285 289 289 288 286 284 287 283 286 290 292 294 296 295 295 295
308 309 309 308 301 300 303 304 306 301 272 289 296 306 304 298 299 301 308 303 296 290 291 290 288 288 288 288 290 288 290 289 288 285 284 285 284 288 289 288 292 294 295 295 294
308 308 309 305 302 304 303 304 304 283 273 284 297 297 297 299 300 301 302 304 302 297 292 291 293 291 291 290 291 291 288 286 284 284 279 284 285 288 288 290 292 294 294 293 293
308 308 307 303 297 302 304 303 286 276 286 284 288 296 295 294 296 298 295 295 292 288 289 294 292 292 292 289 289 289 286 281 278 278 279 284 283 289 289 292 294 293 293 293 292
308 307 305 304 303 303 302 291 277 283 283 289 289 289 289 293 295 295 293 291 295 290 287 287 286 291 293 292 291 287 288 283 277 277 280 282 281 286 290 292 294 295 294 292 292
305 301 300 302 303 303 294 282 280 283 287 288 287 284 284 288 289 292 292 291 294 293 288 285 285 292 291 293 293 287 284 290 285 282 280 283 285 287 289 289 291 291 291 291 291
296 296 296 301 303 300 288 283 285 288 289 288 283 285 281 283 285 287 289 293 293 295 296 292 285 291 290 292 291 290 291 283 283 276 276 282 282 285 286 288 289 289 290 290 291
295 290 294 301 301 291 282 283 286 289 289 286 284 285 286 286 287 287 286 291 292 292 296 292 288 288 288 286 286 286 286 286 286 284 280 279 283 288 289 290 289 290 290 290 291
292 284 293 300 286 286 282 285 288 286 289 288 288 287 286 287 285 285 287 290 293 294 288 292 288 284 287 291 290 288 286 287 282 281 283 283 283 292 292 292 292 291 291 292 292
287 286 297 296 280 281 284 285 286 285 285 285 285 287 289 286 282 286 287 292 294 293 290 291 286 281 284 288 290 288 290 289 287 285 281 280 283 290 291 291 292 291 292 291 291
286 281 286 290 288 283 282 282 282 287 286 287 285 288 286 285 287 284 286 291 291 291 296 293 286 284 280 283 285 284 286 288 288 283 283 283 285 287 288 289 290 291 292 291 290
287 283 284 280 282 283 283 283 281 280 286 288 284 284 283 280 282 282 285 286 289 290 289 290 281 283 285 287 287 286 286 287 285 285 282 285 286 290 290 291 292 293 291 289 288
284 283 284 283 284 284 283 281 280 282 283 282 282 284 285 282 283 281 284 284 285 290 289 290 283 285 283 287 287 285 287 287 287 286 287 287 286 293 293 293 292 291 290 289 288
288 288 286 283 280 279 280 282 282 284 285 286 285 284 283 285 288 289 290 289 288 286 285 286 284 282 278 285 285 280 285 287 287 288 288 284 290 295 294 291 292 291 290 288 287

GFSSW_sfc_thetae_162.txt.gz
Theta_e
322 322 322 322 321 320 320 320 319 319 320 320 320 320 321 318 316 314 306 308 312 322 319 310 309 309 309 308 310 310 304 301 302 303 304 305 305 305 307 306 306 306 312 322 319
323 323 323 323 321 320 320 320 318 319 320 319 319 320 320 316 317 310 314 321 317 319 308 307 305 307 307 306 307 306 303 302 306 306 304 305 306 304 305 304 304 307 315 317 316
324 324 324 323 322 321 320 319 319 320 320 319 319 320 318 316 315 308 318 321 318 315 309 308 306 306 303 305 304 303 302 304 305 305 304 302 303 305 305 303 306 307 311 313 313
324 323 323 323 322 322 320 319 319 320 319 319 320 319 317 315 307 311 322 321 319 310 308 307 306 304 303 301 302 300 302 302 303 303 302 302 304 302 305 305 306 311 313 312 311
319 320 321 322 322 321 320 319 319 319 319 319 319 319 317 315 316 315 321 317 310 307 305 305 303 303 302 300 300 299 301 301 302 302 303 302 302 302 302 305 308 312 311 310 310
315 315 316 318 319 320 320 319 318 318 318 318 318 317 316 309 321 315 312 311 309 307 306 305 303 303 301 300 299 300 300 301 302 302 302 300 301 300 303 308 308 309 309 310 309
313 313 313 314 314 315 316 317 317 317 318 318 318 317 313 312 323 321 318 316 310 307 305 305 305 302 301 299 300 299 296 300 301 302 301 302 298 299 305 307 306 306 308 308 308
311 312 312 312 312 313 313 314 315 317 317 317 317 316 306 321 322 318 320 318 318 310 307 308 306 303 301 301 299 297 297 296 300 300 300 300 296 303 306 305 305 306 306 306 306
311 311 312 312 312 312 312 313 314 315 316 316 315 310 302 319 315 315 316 312 316 313 308 304 304 301 300 297 297 297 295 296 298 299 298 298 298 301 305 304 304 305 306 305 305
309 310 311 311 311 311 311 312 315 314 315 315 310 303 306 302 311 313 311 310 308 311 305 301 301 298 297 297 291 295 294 296 295 298 297 297 297 300 303 304 304 305 306 305 304
309 309 310 310 311 311 313 314 307 307 309 302 303 303 306 313 315 309 307 308 306 307 302 300 298 294 297 298 299 295 294 294 298 297 295 297 298 300 301 302 303 304 305 305 304
309 309 309 311 311 311 313 307 307 307 298 305 306 306 308 310 304 310 315 302 303 300 303 296 295 301 300 298 295 294 293 295 298 299 295 296 297 300 300 301 303 303 304 304 304
309 308 309 310 310 311 310 308 311 310 300 299 303 302 303 307 301 301 310 308 300 299 298 298 299 297 298 295 293 295 292 292 291 295 296 295 294 298 297 300 302 303 305 305 304
309 309 309 309 305 309 305 310 312 312 292 291 296 301 304 304 298 306 307 306 303 297 298 298 301 297 295 295 296 294 298 295 292 291 290 293 288 296 297 296 299 301 303 304 304
309 308 309 308 308 304 307 310 311 308 279 291 297 308 307 300 302 303 309 303 296 298 296 294 294 295 294 296 298 295 296 295 294 293 293 293 288 295 297 294 297 300 302 303 304
309 308 309 308 310 308 309 309 310 289 277 286 298 298 299 301 300 304 304 306 304 296 298 296 299 296 296 295 296 295 293 293 292 293 286 292 291 292 296 296 298 300 302 303 303
308 308 308 309 302 309 312 309 288 280 288 286 290 298 298 296 299 299 298 297 294 290 290 294 294 297 297 294 293 292 291 286 284 284 284 291 289 292 295 296 297 299 301 302 302
308 307 308 307 311 309 309 295 280 284 286 291 292 292 292 296 297 298 297 294 298 295 291 289 288 296 300 295 293 292 292 286 280 283 287 289 286 294 296 297 298 299 301 301 300
306 307 306 308 310 309 297 284 282 285 289 287 288 285 286 290 292 294 295 294 297 298 291 290 289 296 296 298 297 294 289 295 289 290 285 289 293 294 295 296 297 298 300 299 298
303 300 301 309 310 303 290 285 288 291 291 291 284 287 284 286 287 290 291 295 294 297 299 294 287 294 296 295 295 294 295 286 287 279 279 287 289 291 293 294 295 296 297 298 298
302 292 301 309 307 295 283 286 289 293 293 289 287 286 287 287 289 286 287 292 295 294 297 294 291 289 292 291 291 289 288 289 289 287 283 282 287 295 295 296 296 297 298 298 298
294 285 301 306 288 289 286 289 291 290 293 291 291 290 288 289 287 288 287 291 295 293 288 293 291 285 288 295 296 293 291 292 285 284 287 286 287 297 297 298 299 299 298 299 299
286 289 300 300 283 284 288 288 290 288 289 289 288 290 291 288 284 287 287 293 294 293 290 292 288 282 284 290 295 290 292 292 290 288 284 283 286 298 296 296 298 299 298 298 298
288 283 288 291 293 287 285 285 284 290 289 290 288 290 288 286 289 285 285 290 293 291 294 292 289 284 280 284 289 286 289 290 289 285 286 286 289 293 296 295 297 298 299 298 297
287 286 290 283 284 287 288 286 284 283 289 289 287 287 286 283 284 284 287 288 290 292 292 289 283 286 287 288 287 286 286 287 286 288 284 287 288 292 295 297 298 299 299 297 295
286 287 289 289 289 286 286 284 284 285 285 284 284 286 287 284 285 283 286 286 287 290 289 291 284 286 283 286 286 284 286 287 288 288 288 289 289 296 298 298 298 298 298 296 295
289 294 291 287 287 284 284 285 285 286 287 288 286 286 285 286 290 291 292 291 290 288 287 287 285 283 280 285 285 281 286 288 288 290 289 286 292 297 296 296 298 298 298 296 295